Regional Weather Roundup
Issued by NWS

Home | Current Version | Previous Version | Text Only | Print | Product List | Glossary On
Versions: 1 2 3 4 5 6 7 8 9 10 11 12 13 14 15 16 17 18 19 20 21 22 23 24 25 26 27 28 29 30 31 32 33 34 35 36 37 38 39 40 41 42 43 44 45 46 47 48 49 50
000
ASUS43 KOAX 291210
RWRNE

WEATHER ROUNDUP FOR NEBRASKA
NATIONAL WEATHER SERVICE OMAHA NE
600 AM CST THU JAN 29 2015

NOTES: SATELLITE DATA IS BEING USED TO AUGMENT CLOUD COVER ABOVE
       12000 FEET.
       "FAIR" INDICATES FEW OR NO CLOUDS BELOW 12,000 FEET WITH NO
       SIGNIFICANT WEATHER AND/OR OBSTRUCTIONS TO VISIBILITY.

  * THESE STATIONS DO NOT REPORT WEATHER SUCH AS RAIN...SNOW OR FOG.

NEZ001>004-019>022-054>056-291300-
NEBRASKA PANHANDLE

CITY           SKY/WX    TMP DP  RH WIND       PRES   REMARKS
SCOTTSBLUFF    CLEAR     33  26  75 NW12      30.42R WCI  24
6HR MIN TEMP:  33; 6HR MAX TEMP:  40;

ALLIANCE       CLEAR     27  24  89 N9        30.40R WCI  18
6HR MIN TEMP:  26; 6HR MAX TEMP:  30;

CHADRON        MOCLDY    23  20  88 SW3       30.44R
6HR MIN TEMP:  22; 6HR MAX TEMP:  31;

KIMBALL        MOCLDY    32  24  72 NW10      30.39R WCI  24
SIDNEY         PTCLDY    29  22  75 NW14      30.39R WCI  18
6HR MIN TEMP:  27; 6HR MAX TEMP:  36;

$$

NEZ057>060-069>072-079>082-291300-
SOUTHWEST NEBRASKA

CITY           SKY/WX    TMP DP  RH WIND       PRES   REMARKS
NORTH PLATTE   CLEAR     26  21  81 W10       30.38R WCI  16
6HR MIN TEMP:  26; 6HR MAX TEMP:  38;

IMPERIAL       CLEAR     29  24  82 NW13      30.40R WCI  19
6HR MIN TEMP:  29; 6HR MAX TEMP:  40;

LEXINGTON      CLOUDY    37  26  66 N22       30.33R WCI  26
MCCOOK         CLEAR     29  24  82 W8        30.38R WCI  21
6HR MIN TEMP:  28; 6HR MAX TEMP:  44;

OGALLALA       CLEAR     28  26  91 N6        30.40R WCI  21
$$

NEZ005>010-023>029-035>040-094-291300-
NORTH CENTRAL NEBRASKA

CITY           SKY/WX    TMP DP  RH WIND       PRES   REMARKS
VALENTINE      CLOUDY    35  24  64 NW18G24   30.37R WCI  24
6HR MIN TEMP:  34; 6HR MAX TEMP:  37;

AINSWORTH      CLOUDY    33  25  71 NW23G30   30.35R WCI  21
BROKEN BOW     CLOUDY    36  24  62 N28G40    30.32R WCI  23
6HR MIN TEMP:  36; 6HR MAX TEMP:  38;

O`NEILL        CLOUDY    36  28  74 NW29G36   30.31R WCI  23
ORD            CLOUDY    36  24  62 N32G41    30.30R WCI  23
6HR MIN TEMP:  36; 6HR MAX TEMP:  37;

THEDFORD       CLOUDY    35  25  66 NW25G36   30.36R WCI  22
$$

NEZ041-046>049-061>064-073>077-083>087-291300-
SOUTH CENTRAL NEBRASKA

CITY           SKY/WX    TMP DP  RH WIND       PRES   REMARKS
GRAND ISLAND   CLOUDY    37  28  70 N17G28    30.29R WCI  27
6HR MIN TEMP:  37; 6HR MAX TEMP:  41;

AURORA         CLOUDY    38  28  69 N20G28    30.27R WCI  27
HASTINGS       CLOUDY    38  27  64 NW17      30.28R WCI  28
6HR MIN TEMP:  37; 6HR MAX TEMP:  44;

HEBRON         CLOUDY    38  28  66 N18G24    30.26R WCI  29
HOLDREGE       CLOUDY    36  24  62 N15G21    30.31R WCI  26
KEARNEY *      CLOUDY    37  25  60 N18G30    30.31R WCI  27
YORK           CLOUDY    37  30  75 N15G26    30.25R WCI  28
$$

NEZ011>018-030>034-042>045-291300-
NORTHEAST NEBRASKA

CITY           SKY/WX    TMP DP  RH WIND       PRES   REMARKS
NORFOLK        CLOUDY    36  30  79 NW23G36   30.24R WCI  24
6HR MIN TEMP:  35; 6HR MAX TEMP:  37;

ALBION         CLOUDY    37  28  71 NW17G26   30.26R WCI  27
BLAIR          CLOUDY    37  28  70 NW20G32   30.19R WCI  26
COLUMBUS *     CLOUDY    36  25  64 N21G29    30.26R WCI  24
FREMONT        CLOUDY    37  29  74 NW16G29   30.23R WCI  27
TEKAMAH        CLOUDY    37  27  67 NW24G31   30.21R WCI  26
6HR MIN TEMP:  36; 6HR MAX TEMP:  38; 6HR PCP: TRACE;

WAYNE          CLOUDY    35  29  80 NW23G33   30.24R WCI  23
$$

NEZ050>053-065>068-078-088>093-291300-
SOUTHEAST NEBRASKA

CITY           SKY/WX    TMP DP  RH WIND       PRES   REMARKS
LINCOLN        CLOUDY    39  29  67 N26G39    30.24R WCI  28
6HR MIN TEMP:  38; 6HR MAX TEMP:  44;

OMAHA EPPLEY   CLOUDY    37  29  72 NW25G33   30.19R WCI  25
6HR MIN TEMP:  35; 6HR MAX TEMP:  43; 6HR PCP: TRACE;

BEATRICE       CLOUDY    38  29  71 N25G33    30.24R WCI  27
FALLS CITY     CLOUDY    37  27  67 N18G31    30.18R WCI  27
6HR MIN TEMP:  37; 6HR MAX TEMP:  47;

NEBRASKA CITY  CLOUDY    37  27  69 N22G30    30.19R WCI  25
PLATTSMOUTH    CLOUDY    36  27  70 NW31G38   30.18R WCI  23
$$

NEZ044-045-051>053-067-291300-
OMAHA AREA

CITY           SKY/WX    TMP DP  RH WIND       PRES   REMARKS
OMAHA EPPLEY   CLOUDY    37  29  72 NW25G33   30.19R WCI  25
6HR MIN TEMP:  35; 6HR MAX TEMP:  43; 6HR PCP: TRACE;

BLAIR          CLOUDY    37  28  70 NW20G32   30.19R WCI  26
FREMONT        CLOUDY    37  29  74 NW16G29   30.23R WCI  27
MILLARD        CLOUDY    38  28  67 NW20G30   30.20R WCI  27
OFFUTT AFB     CLOUDY    37  29  71 NW17G26   30.19R WCI  27
PLATTSMOUTH    CLOUDY    36  27  70 NW31G38   30.18R WCI  23
WAHOO          CLOUDY    37  28  70 N25G40    30.22R WCI  25
$$



USA.gov is the U.S. government's official web portal to all federal, state and local government web resources and services.